Weather History for KGAD - March, 2013

Change the Weather History Date:

Saturday, March 16, 2013

  Actual Average Record
Temperature  
Mean Temperature 62 °F -  
Max Temperature 77 °F 61 °F 85 °F (1945)
Min Temperature 46 °F 38 °F 20 °F (1949)
Degree Days  
Heating Degree Days 4    
Growing Degree Days 12 (Base 50)    
Moisture  
Dew Point 40 °F    
Average Humidity 44    
Maximum Humidity 76    
Minimum Humidity 25    
Precipitation  
Precipitation 0.00 in - - ()
Sea Level Pressure  
Sea Level Pressure 29.96 in    
Wind  
Wind Speed 7 mph (SW)    
Max Wind Speed 18 mph    
Max Gust Speed 26 mph    
Visibility 10 miles    
Events      
Averages and records for this station are not official NWS values.
T = Trace of Precipitation, MM = Missing Value Source: NWS Daily Summary

Daily Weather History Graph

Daily Weather History Graph

Search for Another Location

Airport or City:

Trip Planner

Search our weather history database for the weather conditions in past years. The results will help you decide how hot, cold, wet, or windy it might be!

Date:

Astronomy

Mar. 16, 2013 Rise Set
Actual Time 6:53 AM CDT 6:53 PM CDT
Civil Twilight 6:28 AM CDT 7:18 PM CDT
Nautical Twilight 5:59 AM CDT 7:47 PM CDT
Astronomical Twilight 5:29 AM CDT 8:16 PM CDT
Moon 9:36 AM CDT (3/16) 11:46 PM CDT (3/16)
Length of Visible Light 12h 49m
Length of Day
11h 59m
Waxing Crescent, 23% of the Moon is Illuminated
Mar 16
Waxing Crescent
Mar 19
First Quarter
Mar 27
Full
Apr 2
Last Quarter
Apr 10
New

Hourly Weather History & Observations

Time (CDT) Temp. Windchill Dew Point Humidity Pressure Visibility Wind Dir Wind Speed Gust Speed Precip Events Conditions
12:55 AM 60.8 °F - 39.2 °F 45% 29.99 in 10.0 mi SSW 4.6 mph - N/A   Clear
1:15 AM 60.8 °F - 39.2 °F 45% 29.99 in 10.0 mi SSW 4.6 mph - N/A   Clear
1:35 AM 59.0 °F - 39.2 °F 48% 29.99 in 10.0 mi SSW 3.5 mph - N/A   Clear
1:55 AM 59.0 °F - 39.2 °F 48% 29.99 in 10.0 mi SW 6.9 mph - N/A   Clear
2:15 AM 59.0 °F - 39.2 °F 48% 29.99 in 10.0 mi SSW 3.5 mph - N/A   Clear
2:35 AM 57.2 °F - 39.2 °F 51% 29.98 in 10.0 mi SSW 4.6 mph - N/A   Clear
2:55 AM 57.2 °F - 39.2 °F 51% 29.99 in 10.0 mi SW 5.8 mph - N/A   Clear
3:15 AM 57.2 °F - 39.2 °F 51% 29.99 in 10.0 mi SSW 5.8 mph - N/A   Clear
3:35 AM 57.2 °F - 39.2 °F 51% 29.98 in 10.0 mi SSW 5.8 mph - N/A   Clear
3:55 AM 55.4 °F - 39.2 °F 54% 29.98 in 10.0 mi SSW 4.6 mph - N/A   Clear
4:15 AM 55.4 °F - 39.2 °F 54% 29.98 in 10.0 mi SSW 4.6 mph - N/A   Clear
4:35 AM 55.4 °F - 39.2 °F 54% 29.98 in 10.0 mi SSW 3.5 mph - N/A   Clear
4:55 AM 55.4 °F - 39.2 °F 54% 29.99 in 10.0 mi SSW 4.6 mph - N/A   Clear
5:15 AM 55.4 °F - 39.2 °F 54% 30.00 in 10.0 mi SW 3.5 mph - N/A   Clear
5:35 AM 53.6 °F - 39.2 °F 58% 30.00 in 10.0 mi SW 4.6 mph - N/A   Clear
5:55 AM 53.6 °F - 39.2 °F 58% 30.01 in 10.0 mi SSW 4.6 mph - N/A   Clear
6:15 AM 51.8 °F - 39.2 °F 62% 30.01 in 10.0 mi SW 3.5 mph - N/A   Clear
6:35 AM 51.8 °F - 39.2 °F 62% 30.01 in 10.0 mi SSW 3.5 mph - N/A   Clear
6:55 AM 51.8 °F - 39.2 °F 62% 30.02 in 10.0 mi SW 3.5 mph - N/A   Clear
7:15 AM 46.4 °F 45.2 °F 39.2 °F 76% 30.02 in 10.0 mi SSW 3.5 mph - N/A   Clear
7:35 AM 48.2 °F - 41.0 °F 76% 30.03 in 10.0 mi SW 3.5 mph - N/A   Clear
7:55 AM 51.8 °F - 42.8 °F 71% 30.03 in 10.0 mi SSW 4.6 mph - N/A   Clear
8:15 AM 55.4 °F - 42.8 °F 63% 30.03 in 10.0 mi SSW 5.8 mph - N/A   Clear
8:35 AM 57.2 °F - 41.0 °F 55% 30.03 in 10.0 mi SW 5.8 mph - N/A   Clear
8:55 AM 59.0 °F - 41.0 °F 51% 30.03 in 10.0 mi WSW 8.1 mph - N/A   Clear
9:15 AM 60.8 °F - 41.0 °F 48% 30.02 in 10.0 mi SW 8.1 mph - N/A   Partly Cloudy
9:35 AM 62.6 °F - 41.0 °F 45% 30.02 in 10.0 mi WSW 9.2 mph - N/A   Clear
9:55 AM 64.4 °F - 41.0 °F 42% 30.01 in 10.0 mi WSW 12.7 mph - N/A   Clear
10:15 AM 66.2 °F - 37.4 °F 35% 30.01 in 10.0 mi West 15.0 mph 23.0 mph N/A   Clear
10:35 AM 66.2 °F - 37.4 °F 35% 30.00 in 10.0 mi WSW 17.3 mph 24.2 mph N/A   Clear
10:55 AM 68.0 °F - 39.2 °F 35% 30.00 in 10.0 mi WSW 18.4 mph 24.2 mph N/A   Clear
11:15 AM 69.8 °F - 39.2 °F 33% 29.99 in 10.0 mi WSW 15.0 mph 24.2 mph N/A   Clear
11:35 AM 69.8 °F - 39.2 °F 33% 29.98 in 10.0 mi WSW 17.3 mph 20.7 mph N/A   Clear
11:55 AM 71.6 °F - 37.4 °F 29% 29.98 in 10.0 mi WSW 15.0 mph 20.7 mph N/A   Clear
12:15 PM 73.4 °F - 37.4 °F 27% 29.97 in 10.0 mi SW 15.0 mph 20.7 mph N/A   Clear
12:35 PM 73.4 °F - 35.6 °F 25% 29.96 in 10.0 mi WSW 18.4 mph 25.3 mph N/A   Clear
12:55 PM 73.4 °F - 37.4 °F 27% 29.95 in 10.0 mi SW 15.0 mph 23.0 mph N/A   Clear
1:15 PM 73.4 °F - 37.4 °F 27% 29.95 in 10.0 mi WSW 15.0 mph 26.5 mph N/A   Clear
1:35 PM 75.2 °F - 37.4 °F 25% 29.94 in 10.0 mi SW 15.0 mph 24.2 mph N/A   Clear
1:55 PM 75.2 °F - 39.2 °F 27% 29.94 in 10.0 mi WSW 15.0 mph 20.7 mph N/A   Clear
2:15 PM 75.2 °F - 39.2 °F 27% 29.92 in 10.0 mi WSW 17.3 mph 21.9 mph N/A   Clear
2:35 PM 75.2 °F - 39.2 °F 27% 29.92 in 10.0 mi WSW 16.1 mph 21.9 mph N/A   Clear
2:55 PM 75.2 °F - 41.0 °F 29% 29.91 in 10.0 mi SSW 17.3 mph 25.3 mph N/A   Clear
3:15 PM 75.2 °F - 41.0 °F 29% 29.91 in 10.0 mi WSW 16.1 mph 24.2 mph N/A   Clear
3:35 PM 77.0 °F - 42.8 °F 29% 29.91 in 10.0 mi WSW 18.4 mph 24.2 mph N/A   Clear
3:55 PM 75.2 °F - 42.8 °F 31% 29.91 in 10.0 mi SW 13.8 mph 21.9 mph N/A   Clear
4:15 PM 75.2 °F - 41.0 °F 29% 29.90 in 10.0 mi WSW 17.3 mph 21.9 mph N/A   Clear
4:35 PM 75.2 °F - 42.8 °F 31% 29.90 in 10.0 mi WSW 11.5 mph 17.3 mph N/A   Clear
4:55 PM 75.2 °F - 42.8 °F 31% 29.90 in 10.0 mi SW 11.5 mph 17.3 mph N/A   Clear
5:15 PM 73.4 °F - 42.8 °F 33% 29.90 in 10.0 mi WSW 8.1 mph - N/A   Clear
5:35 PM 73.4 °F - 42.8 °F 33% 29.90 in 10.0 mi WSW 11.5 mph - N/A   Clear
5:55 PM 73.4 °F - 42.8 °F 33% 29.90 in 10.0 mi SW 10.4 mph - N/A   Clear
6:15 PM 73.4 °F - 42.8 °F 33% 29.90 in 10.0 mi SW 6.9 mph - N/A   Clear
6:35 PM 71.6 °F - 42.8 °F 35% 29.91 in 10.0 mi SW 9.2 mph - N/A   Clear
6:55 PM 71.6 °F - 42.8 °F 35% 29.92 in 10.0 mi SW 5.8 mph - N/A   Clear
7:15 PM 69.8 °F - 42.8 °F 38% 29.92 in 10.0 mi Calm Calm - N/A   Clear
7:35 PM 64.4 °F - 42.8 °F 45% 29.92 in 10.0 mi SSW 3.5 mph - N/A   Clear
7:55 PM 62.6 °F - 42.8 °F 48% 29.92 in 10.0 mi SSW 3.5 mph - N/A   Clear
8:15 PM 66.2 °F - 42.8 °F 43% 29.92 in 10.0 mi SSW 3.5 mph - N/A   Clear
8:35 PM 64.4 °F - 42.8 °F 45% 29.93 in 10.0 mi SSW 3.5 mph - N/A   Clear
8:55 PM 62.6 °F - 42.8 °F 48% 29.93 in 10.0 mi SW 4.6 mph - N/A   Clear
9:15 PM 57.2 °F - 42.8 °F 59% 29.94 in 10.0 mi SW 4.6 mph - N/A   Clear
9:35 PM 57.2 °F - 42.8 °F 59% 29.94 in 10.0 mi SSW 5.8 mph - N/A   Clear
9:55 PM 62.6 °F - 42.8 °F 48% 29.95 in 10.0 mi SW 6.9 mph - N/A   Clear
10:15 PM 62.6 °F - 42.8 °F 48% 29.95 in 10.0 mi SW 8.1 mph - N/A   Clear
10:35 PM 62.6 °F - 41.0 °F 45% 29.96 in 10.0 mi SW 6.9 mph - N/A   Clear
10:55 PM 62.6 °F - 41.0 °F 45% 29.96 in 10.0 mi WSW 5.8 mph - N/A   Clear
11:15 PM 59.0 °F - 41.0 °F 51% 29.96 in 10.0 mi West 3.5 mph - N/A   Clear
11:35 PM 57.2 °F - 41.0 °F 55% 29.96 in 10.0 mi West 4.6 mph - N/A   Clear
11:55 PM 53.6 °F - 42.8 °F 67% 29.96 in 10.0 mi SW 4.6 mph - N/A   Clear